Temp
-6 -6 -6 -5 -6 -6 -6 -6 -6 -6 -6 -6 -7 -7 -7 -7 -7 -7 -7 -7 -7 -8 -8 -8 -9 -9 -9 -9 -9 -9 -10 -10 -10 -10 -10 -10 -10 -10 -10 -9 -9 -8 -8 -8 -8
-5 -5 -6 -6 -6 -6 -6 -6 -6 -6 -6 -6 -7 -7 -7 -7 -8 -8 -7 -8 -8 -8 -8 -8 -9 -9 -9 -9 -9 -9 -10 -10 -10 -10 -10 -10 -9 -9 -9 -9 -9 -9 -9 -8 -8
-6 -6 -6 -6 -6 -6 -6 -6 -6 -6 -6 -6 -7 -7 -7 -7 -7 -8 -8 -8 -8 -8 -8 -8 -8 -9 -9 -9 -9 -9 -9 -9 -10 -10 -9 -9 -9 -9 -9 -9 -10 -9 -9 -8 -8
-6 -6 -6 -6 -6 -6 -6 -6 -6 -6 -6 -6 -7 -7 -7 -7 -7 -7 -8 -8 -8 -8 -8 -8 -8 -9 -9 -9 -9 -9 -9 -9 -9 -9 -9 -9 -9 -9 -9 -10 -9 -8 -8 -9 -8
-6 -6 -6 -6 -6 -6 -6 -6 -6 -6 -6 -6 -7 -7 -8 -8 -8 -7 -8 -8 -8 -8 -8 -8 -8 -8 -8 -9 -9 -9 -9 -9 -9 -9 -9 -9 -9 -9 -9 -9 -9 -9 -8 -8 -8
-6 -6 -6 -6 -6 -6 -6 -6 -6 -7 -6 -7 -7 -7 -8 -8 -8 -8 -8 -8 -9 -9 -9 -8 -8 -8 -9 -9 -9 -9 -9 -10 -10 -10 -9 -9 -9 -9 -10 -9 -9 -9 -8 -8 -8
-6 -6 -6 -6 -6 -6 -6 -6 -6 -6 -6 -6 -6 -7 -8 -8 -9 -9 -8 -8 -9 -9 -9 -9 -9 -9 -9 -9 -9 -9 -10 -10 -10 -10 -9 -9 -9 -10 -9 -9 -9 -8 -8 -8 -8
-5 -5 -5 -5 -6 -6 -6 -6 -6 -6 -6 -6 -6 -6 -8 -9 -9 -8 -9 -9 -9 -9 -9 -9 -9 -9 -9 -9 -9 -10 -10 -10 -10 -10 -9 -9 -10 -9 -9 -9 -9 -9 -9 -8 -9
-6 -5 -6 -6 -6 -6 -6 -6 -7 -7 -7 -7 -7 -7 -7 -8 -9 -9 -10 -9 -10 -10 -10 -9 -9 -9 -9 -10 -9 -10 -10 -10 -10 -10 -10 -9 -10 -9 -9 -9 -9 -9 -9 -9 -9
-6 -6 -6 -7 -7 -7 -7 -7 -7 -7 -8 -8 -8 -8 -8 -9 -9 -9 -10 -10 -10 -10 -10 -10 -10 -9 -9 -10 -10 -11 -10 -10 -10 -10 -10 -10 -10 -10 -9 -9 -9 -9 -9 -9 -9
-8 -7 -8 -8 -8 -8 -8 -8 -9 -8 -9 -9 -9 -9 -9 -9 -9 -10 -10 -11 -10 -11 -11 -11 -10 -10 -11 -11 -10 -10 -10 -10 -11 -11 -10 -10 -9 -10 -10 -9 -10 -10 -9 -9 -9
-9 -9 -9 -8 -9 -9 -10 -10 -10 -9 -10 -11 -11 -10 -10 -10 -9 -11 -12 -11 -11 -12 -12 -11 -11 -12 -12 -11 -11 -10 -10 -11 -11 -11 -10 -10 -9 -10 -10 -10 -10 -10 -9 -9 -9
-9 -9 -9 -10 -10 -10 -10 -11 -11 -11 -10 -11 -12 -12 -11 -12 -11 -12 -11 -12 -12 -12 -12 -12 -11 -12 -12 -11 -11 -11 -11 -11 -11 -11 -10 -10 -9 -10 -10 -10 -10 -10 -10 -10 -9
-10 -10 -10 -10 -11 -11 -11 -11 -12 -12 -12 -12 -12 -12 -12 -12 -12 -12 -13 -12 -12 -12 -13 -12 -12 -12 -12 -12 -12 -12 -13 -12 -12 -11 -11 -10 -9 -10 -11 -11 -10 -10 -10 -10 -9
-11 -11 -11 -11 -12 -12 -13 -13 -13 -14 -14 -13 -13 -13 -14 -14 -14 -14 -14 -14 -14 -14 -14 -13 -13 -14 -14 -14 -14 -13 -13 -12 -12 -11 -10 -11 -10 -9 -11 -11 -10 -10 -10 -10 -9
-12 -12 -12 -13 -13 -14 -15 -15 -14 -15 -14 -15 -15 -15 -15 -15 -15 -15 -15 -15 -15 -15 -15 -14 -14 -14 -14 -14 -14 -14 -14 -13 -13 -12 -10 -11 -11 -9 -11 -11 -11 -10 -10 -10 -10
-13 -13 -13 -14 -15 -15 -15 -15 -16 -15 -16 -15 -16 -16 -16 -15 -15 -15 -15 -16 -16 -16 -15 -15 -15 -15 -15 -15 -15 -15 -14 -14 -14 -13 -11 -12 -11 -10 -10 -11 -11 -11 -10 -10 -10
-13 -14 -14 -15 -16 -16 -16 -15 -16 -16 -16 -17 -17 -17 -17 -16 -16 -16 -16 -16 -16 -16 -16 -16 -15 -15 -16 -15 -16 -16 -15 -15 -15 -14 -13 -12 -11 -11 -11 -11 -12 -11 -11 -10 -10
-14 -14 -16 -16 -16 -16 -16 -16 -17 -17 -17 -17 -17 -17 -17 -17 -17 -16 -16 -16 -16 -17 -17 -16 -15 -16 -15 -16 -16 -15 -15 -16 -15 -15 -13 -12 -11 -11 -12 -12 -12 -11 -11 -11 -11
-16 -16 -17 -17 -17 -17 -18 -18 -18 -18 -18 -17 -17 -17 -17 -17 -17 -17 -17 -17 -17 -17 -17 -17 -17 -16 -17 -16 -16 -16 -16 -16 -15 -14 -14 -12 -12 -12 -13 -12 -12 -12 -12 -11 -11
-18 -17 -18 -17 -17 -17 -18 -18 -17 -17 -17 -17 -18 -18 -19 -19 -19 -19 -18 -18 -18 -17 -17 -17 -17 -17 -17 -17 -16 -16 -16 -16 -16 -16 -14 -14 -13 -13 -14 -13 -12 -12 -12 -12 -12
-18 -18 -18 -18 -17 -18 -18 -17 -17 -17 -19 -19 -20 -20 -20 -20 -20 -20 -19 -20 -20 -20 -20 -21 -19 -18 -18 -18 -18 -17 -17 -17 -17 -16 -16 -15 -13 -15 -15 -14 -13 -13 -12 -12 -12
-19 -19 -19 -18 -17 -17 -17 -18 -19 -20 -20 -20 -21 -23 -23 -23 -22 -22 -21 -21 -22 -23 -23 -22 -21 -20 -20 -20 -19 -19 -18 -18 -17 -17 -15 -15 -13 -15 -16 -14 -14 -13 -13 -13 -13
-19 -19 -19 -18 -19 -18 -19 -20 -21 -22 -21 -22 -22 -24 -24 -25 -24 -23 -23 -22 -23 -23 -23 -23 -21 -21 -20 -20 -20 -20 -19 -18 -18 -17 -15 -15 -15 -15 -15 -16 -15 -15 -14 -13 -13
-20 -21 -21 -22 -22 -21 -21 -22 -23 -23 -24 -24 -25 -25 -26 -26 -25 -25 -24 -23 -24 -24 -23 -24 -23 -23 -22 -20 -20 -20 -20 -19 -18 -17 -16 -15 -15 -15 -15 -16 -16 -15 -15 -14 -13
-24 -23 -23 -25 -24 -23 -25 -25 -25 -25 -25 -26 -27 -28 -28 -29 -28 -26 -27 -26 -25 -25 -25 -25 -24 -24 -23 -22 -20 -19 -19 -19 -18 -18 -16 -16 -16 -16 -16 -15 -16 -16 -16 -15 -14
-25 -24 -25 -25 -25 -27 -27 -27 -27 -26 -27 -27 -28 -28 -29 -30 -29 -28 -27 -27 -27 -27 -27 -26 -26 -25 -24 -23 -21 -19 -19 -19 -19 -18 -18 -17 -16 -16 -16 -16 -16 -16 -15 -15 -15
Height
5859 5858 5857 5855 5854 5852 5851 5850 5848 5846 5845 5844 5842 5841 5838 5837 5836 5835 5833 5833 5831 5829 5827 5825 5824 5823 5822 5822 5822 5821 5821 5822 5823 5824 5826 5826 5827 5827 5827 5828 5831 5832 5834 5836 5836
5856 5855 5854 5853 5852 5850 5848 5846 5845 5843 5841 5840 5838 5837 5835 5833 5832 5831 5830 5828 5827 5826 5826 5824 5822 5821 5820 5819 5820 5820 5819 5818 5820 5820 5822 5823 5823 5823 5824 5824 5826 5827 5830 5832 5832
5852 5851 5850 5848 5847 5846 5844 5843 5841 5840 5838 5836 5834 5833 5832 5830 5828 5827 5826 5825 5824 5823 5821 5821 5821 5818 5816 5816 5816 5816 5816 5815 5816 5816 5816 5818 5818 5818 5818 5819 5820 5823 5825 5827 5828
5847 5846 5845 5844 5843 5841 5840 5838 5836 5835 5833 5831 5830 5829 5828 5827 5825 5825 5822 5821 5820 5819 5818 5816 5816 5816 5814 5813 5813 5812 5811 5812 5811 5811 5811 5811 5812 5813 5814 5814 5817 5820 5822 5823 5823
5840 5839 5838 5837 5836 5835 5833 5832 5831 5829 5827 5826 5825 5824 5823 5822 5818 5819 5817 5816 5816 5815 5814 5812 5811 5811 5811 5809 5809 5808 5806 5808 5806 5807 5806 5806 5807 5808 5811 5810 5813 5815 5816 5817 5818
5835 5834 5833 5832 5830 5829 5828 5827 5825 5823 5822 5820 5818 5817 5817 5816 5815 5812 5809 5809 5810 5809 5810 5809 5807 5805 5805 5804 5804 5803 5802 5802 5803 5802 5803 5802 5802 5805 5803 5806 5808 5810 5810 5812 5814
5828 5827 5826 5825 5823 5821 5820 5819 5818 5817 5816 5814 5811 5809 5810 5808 5808 5806 5802 5800 5801 5802 5802 5802 5802 5801 5800 5799 5799 5798 5798 5797 5797 5797 5797 5796 5799 5799 5796 5801 5803 5805 5806 5807 5809
5822 5820 5819 5817 5816 5814 5812 5811 5809 5808 5807 5806 5805 5803 5801 5799 5797 5797 5798 5796 5791 5793 5796 5795 5795 5796 5795 5793 5794 5793 5793 5793 5789 5792 5791 5792 5795 5789 5792 5794 5796 5799 5801 5802 5802
5814 5812 5810 5808 5806 5804 5804 5803 5803 5801 5800 5798 5796 5795 5795 5792 5789 5788 5787 5788 5786 5784 5784 5785 5788 5789 5789 5787 5787 5786 5786 5785 5784 5786 5786 5786 5790 5785 5788 5789 5790 5792 5794 5796 5796
5806 5802 5799 5797 5796 5795 5795 5793 5792 5791 5789 5786 5785 5785 5782 5782 5781 5780 5779 5778 5778 5776 5777 5779 5779 5781 5783 5780 5780 5775 5778 5780 5781 5780 5779 5780 5784 5781 5781 5784 5786 5787 5788 5789 5790
5796 5794 5792 5791 5787 5785 5783 5781 5783 5782 5778 5777 5775 5773 5770 5771 5771 5768 5768 5769 5768 5767 5770 5769 5767 5772 5774 5770 5771 5771 5772 5773 5776 5772 5770 5773 5778 5779 5777 5778 5780 5780 5781 5783 5783
5784 5781 5779 5777 5775 5772 5769 5767 5764 5765 5768 5762 5761 5762 5758 5760 5762 5759 5758 5759 5758 5759 5758 5758 5760 5763 5763 5761 5761 5764 5765 5767 5767 5763 5760 5766 5771 5773 5773 5773 5773 5773 5775 5777 5778
5768 5765 5763 5760 5758 5756 5754 5751 5750 5748 5751 5759 5748 5749 5749 5748 5751 5749 5747 5747 5748 5749 5749 5748 5753 5752 5752 5752 5753 5755 5756 5759 5755 5754 5754 5757 5765 5767 5768 5767 5767 5768 5770 5771 5772
5757 5753 5750 5748 5745 5741 5739 5738 5735 5734 5735 5739 5739 5738 5737 5737 5737 5737 5733 5737 5734 5738 5738 5736 5741 5744 5743 5744 5745 5745 5748 5747 5746 5747 5749 5751 5755 5762 5761 5760 5761 5763 5765 5765 5765
5741 5740 5735 5731 5729 5727 5725 5723 5722 5723 5717 5724 5725 5725 5724 5724 5722 5725 5725 5723 5724 5724 5723 5727 5728 5729 5728 5734 5730 5733 5736 5737 5738 5740 5742 5748 5747 5758 5756 5754 5755 5757 5758 5758 5759
5724 5722 5719 5716 5716 5713 5710 5710 5711 5710 5706 5711 5712 5713 5713 5712 5709 5710 5712 5710 5711 5710 5711 5714 5714 5716 5719 5719 5718 5722 5727 5729 5730 5732 5732 5742 5740 5748 5748 5749 5749 5750 5752 5752 5753
5710 5706 5706 5704 5702 5699 5697 5697 5697 5698 5697 5698 5697 5697 5699 5701 5699 5697 5698 5698 5698 5696 5699 5701 5701 5703 5704 5707 5708 5710 5714 5717 5720 5720 5724 5732 5730 5740 5741 5743 5743 5744 5745 5746 5747
5695 5691 5689 5689 5689 5686 5684 5683 5682 5684 5683 5681 5682 5683 5682 5686 5687 5686 5684 5685 5685 5681 5684 5686 5691 5693 5697 5697 5700 5699 5702 5705 5705 5711 5715 5718 5720 5732 5735 5737 5737 5738 5739 5740 5741
5676 5675 5673 5672 5672 5670 5670 5668 5666 5666 5666 5663 5664 5659 5668 5667 5666 5669 5670 5671 5671 5669 5667 5669 5674 5683 5681 5682 5685 5692 5691 5699 5698 5701 5703 5708 5714 5725 5728 5729 5730 5732 5734 5734 5735
5659 5659 5658 5657 5657 5657 5656 5655 5650 5646 5646 5643 5638 5637 5637 5643 5644 5646 5652 5653 5655 5656 5651 5655 5656 5668 5670 5667 5673 5677 5685 5684 5686 5690 5693 5698 5707 5715 5719 5722 5724 5727 5728 5729 5729
5642 5639 5641 5641 5645 5645 5639 5638 5635 5625 5624 5620 5611 5610 5612 5612 5615 5617 5624 5628 5631 5633 5636 5633 5637 5646 5657 5657 5667 5668 5668 5673 5678 5681 5683 5689 5702 5707 5711 5714 5717 5720 5722 5724 5726
5626 5626 5626 5625 5630 5624 5623 5618 5613 5609 5598 5591 5586 5585 5585 5587 5587 5592 5599 5603 5608 5611 5614 5613 5619 5623 5637 5646 5652 5653 5656 5661 5662 5670 5674 5679 5694 5699 5702 5706 5709 5713 5715 5718 5720
5615 5612 5609 5605 5606 5601 5598 5592 5584 5582 5581 5573 5564 5561 5563 5561 5563 5570 5575 5581 5585 5591 5596 5602 5607 5612 5619 5632 5636 5639 5644 5647 5654 5659 5663 5667 5679 5694 5695 5699 5704 5707 5709 5712 5714
5598 5593 5588 5582 5580 5575 5573 5573 5565 5561 5559 5550 5547 5542 5542 5542 5547 5545 5551 5556 5563 5569 5579 5583 5589 5597 5606 5611 5618 5625 5628 5634 5641 5648 5655 5657 5669 5685 5689 5692 5695 5699 5702 5704 5707
5575 5572 5568 5565 5564 5558 5553 5548 5547 5543 5539 5535 5530 5528 5527 5526 5526 5528 5533 5539 5545 5553 5559 5564 5569 5580 5589 5597 5598 5603 5613 5622 5631 5640 5641 5652 5654 5674 5680 5684 5686 5690 5693 5697 5702
5557 5554 5553 5550 5549 5544 5537 5535 5532 5526 5525 5524 5516 5516 5515 5514 5518 5518 5516 5520 5525 5537 5540 5547 5551 5560 5569 5581 5585 5590 5599 5609 5620 5626 5630 5636 5643 5659 5667 5676 5679 5682 5685 5690 5695
5541 5538 5538 5541 5536 5532 5528 5525 5523 5515 5513 5509 5507 5507 5508 5514 5506 5503 5505 5511 5513 5521 5528 5533 5539 5543 5551 5563 5570 5578 5592 5595 5605 5613 5619 5622 5635 5648 5654 5665 5669 5674 5678 5685 5689
Wind_Speed
19 19 20 21 22 22 22 23 23 23 23 23 23 21 22 20 19 18 16 16 18 17 15 15 14 12 13 15 14 14 10 15 19 19 18 19 24 27 27 28 29 27 26 27 29
22 22 22 24 25 24 23 24 24 24 25 26 25 23 23 23 22 19 18 16 17 19 20 18 17 17 17 15 16 17 14 18 19 20 17 22 22 26 29 27 26 27 25 26 29
23 24 26 26 26 26 26 26 27 27 27 27 26 27 26 26 25 23 22 20 19 18 19 21 21 20 19 20 19 19 20 21 23 25 23 24 26 22 26 25 27 24 25 25 26
27 28 28 28 28 28 29 29 29 30 29 30 30 29 28 29 32 27 27 25 23 21 20 21 22 23 22 22 22 22 25 23 24 23 22 24 28 25 21 25 24 24 24 24 24
27 28 28 29 29 30 30 30 30 29 30 32 33 34 31 28 32 30 31 29 29 28 25 24 24 24 25 24 23 23 25 22 25 24 24 23 24 24 21 25 24 24 24 24 22
29 30 31 31 32 32 33 32 32 32 31 32 34 36 36 35 34 33 33 34 32 31 30 29 27 26 26 27 25 23 24 23 21 23 22 24 25 22 26 26 26 25 25 25 25
33 34 35 35 34 33 34 34 35 34 35 36 34 36 36 39 37 38 37 35 35 35 33 33 31 29 28 29 26 25 25 25 25 24 22 26 20 22 29 25 27 28 27 27 27
33 34 35 36 37 36 34 35 36 36 36 37 39 36 37 39 40 41 40 39 35 36 36 37 34 32 31 29 29 27 26 27 31 26 24 25 16 29 26 24 27 27 28 28 28
35 36 37 38 38 38 39 40 39 39 38 40 38 36 38 41 41 41 40 41 38 35 36 37 36 35 34 32 31 29 28 30 31 27 27 26 19 30 26 25 26 28 28 27 27
41 42 42 41 39 40 42 42 44 45 43 41 39 38 39 39 40 42 42 42 40 38 39 36 35 37 36 32 32 37 33 32 28 29 30 28 22 26 28 25 25 28 28 27 26
44 44 44 43 42 43 45 46 48 48 44 42 40 40 42 42 41 43 45 44 42 40 35 37 39 33 34 38 39 40 34 31 28 31 34 29 26 25 27 27 25 27 27 24 24
46 48 48 47 50 54 53 52 49 54 44 44 43 39 42 41 38 42 42 44 43 40 41 43 40 33 36 42 42 40 36 30 30 34 37 30 23 24 25 27 28 27 25 24 25
52 52 52 54 57 57 57 53 52 53 55 40 44 44 43 42 40 42 45 43 43 44 42 45 42 37 38 42 43 40 37 33 37 37 38 34 23 23 23 27 28 27 26 26 26
57 59 58 62 59 57 56 56 55 54 57 49 44 44 42 43 42 40 41 41 45 41 41 47 45 40 39 38 40 39 36 39 40 39 37 35 26 23 23 26 26 26 24 24 22
60 62 60 60 57 57 54 55 56 53 59 52 44 43 42 41 41 38 38 38 36 34 42 46 47 46 47 40 42 43 40 40 41 39 39 30 31 18 21 25 23 22 20 19 19
61 63 64 61 60 54 52 53 53 53 55 50 46 42 41 45 48 48 47 46 44 44 43 41 37 38 44 48 46 47 40 38 41 39 41 27 31 21 23 22 23 21 19 17 17
61 62 65 64 55 54 52 51 51 51 50 47 44 46 45 44 47 50 50 48 47 46 45 46 43 40 35 31 36 43 45 44 43 43 41 32 36 25 25 20 23 20 19 17 16
68 67 66 62 57 54 55 55 54 51 46 49 51 50 52 52 53 53 57 55 53 55 53 50 44 48 37 40 29 35 38 39 43 45 42 40 40 25 22 21 23 21 19 18 16
69 68 63 61 56 56 58 60 57 56 58 61 60 64 65 64 63 61 59 62 60 58 60 58 56 42 50 44 42 38 41 34 39 41 44 46 40 24 18 25 23 22 20 19 16
72 71 68 61 56 56 56 60 66 70 67 70 76 80 80 74 67 67 64 64 66 66 66 63 61 52 47 49 50 46 36 38 41 43 42 41 37 28 21 23 21 22 20 20 17
66 71 64 63 63 64 65 71 77 81 80 83 80 75 69 66 61 61 63 66 68 71 73 73 74 64 51 53 45 46 45 42 38 40 42 40 31 28 18 26 22 21 19 19 18
72 68 69 70 72 74 83 89 82 77 71 71 69 62 62 60 61 60 59 64 67 69 66 68 70 69 60 51 48 48 47 43 44 46 44 42 33 22 18 23 23 21 20 20 19
64 68 76 80 85 90 87 82 76 70 65 66 62 58 57 59 60 58 58 61 65 66 60 58 57 57 55 49 49 50 51 50 50 49 51 48 44 30 22 25 21 21 21 20 20
79 83 82 82 80 85 83 76 65 58 58 57 58 55 51 50 51 57 57 60 62 67 65 61 59 57 48 52 56 56 56 54 52 51 52 54 46 29 35 30 28 25 22 22 21
75 74 75 73 72 77 71 65 57 54 49 47 47 47 43 42 46 52 54 56 57 60 64 68 70 66 62 52 45 56 60 57 54 51 51 52 49 35 34 34 34 32 31 26 21
67 70 71 65 65 61 55 51 48 45 44 37 38 36 37 37 36 41 47 50 52 50 54 55 65 68 68 63 52 47 56 47 52 55 54 52 54 42 36 32 32 32 35 31 27
69 70 66 61 51 41 40 43 39 41 36 34 33 36 35 29 39 43 42 41 45 35 40 43 42 49 64 69 72 53 38 56 51 52 54 53 54 46 40 36 35 37 39 31 26
Wind_Direction
316 320 323 323 322 320 321 321 317 312 309 307 306 304 304 304 310 316 320 313 311 306 302 297 293 287 282 280 272 259 270 257 261 270 263 257 251 249 248 250 253 253 244 243 248
304 308 311 314 314 313 312 310 310 309 308 305 302 300 296 297 297 299 304 303 301 299 298 292 285 278 277 273 271 264 260 254 250 254 257 271 266 256 256 257 255 247 244 243 246
295 296 299 302 302 304 305 307 308 307 307 306 303 300 297 293 290 293 292 295 293 290 288 289 288 282 277 271 268 271 264 259 252 256 256 256 273 267 257 255 246 245 249 248 248
297 297 298 298 297 295 295 298 300 302 303 304 305 303 300 297 290 292 289 290 287 286 282 280 279 281 277 274 270 265 265 266 262 259 258 253 251 267 258 251 249 246 246 249 257
294 296 296 296 295 294 294 295 295 295 297 300 301 301 299 292 285 290 288 284 284 284 281 277 277 273 275 273 269 268 267 269 264 260 257 258 255 257 260 254 252 249 249 250 252
295 295 294 293 292 293 293 295 294 295 299 301 300 296 295 294 293 288 281 282 280 279 279 277 275 274 270 271 271 270 271 265 266 266 262 259 252 252 252 252 256 255 254 259 260
291 293 294 293 290 289 291 294 296 295 296 296 296 297 296 291 292 286 280 278 280 280 277 274 274 274 272 270 270 266 266 268 264 260 260 255 256 252 249 247 248 250 256 260 261
296 294 293 293 293 289 286 287 286 286 288 290 290 290 293 289 288 287 287 282 275 277 278 277 273 273 272 270 268 265 263 264 263 264 260 260 246 252 250 245 249 253 255 261 269
289 289 287 285 284 284 286 288 288 290 290 291 288 287 288 285 284 283 281 280 278 274 270 269 271 270 271 269 268 265 259 255 260 263 266 263 254 261 254 251 247 250 258 264 269
285 284 283 283 285 286 289 290 286 289 286 288 287 282 283 283 279 279 277 276 275 272 273 273 269 267 267 270 262 258 257 260 261 265 259 260 250 253 260 255 259 262 263 267 271
288 287 289 287 286 287 288 289 289 289 288 285 285 281 274 276 272 274 272 272 270 269 271 267 261 262 262 259 258 261 259 257 259 261 260 258 252 251 259 262 261 261 265 271 277
295 294 294 295 297 299 298 294 290 298 295 291 286 278 271 271 270 273 271 269 269 266 264 263 264 260 255 257 258 257 258 256 251 253 257 254 254 251 251 256 262 266 271 272 272
292 294 293 295 298 297 296 293 291 291 294 287 274 277 278 275 270 272 269 269 269 267 263 263 263 255 253 253 257 257 257 253 252 250 254 255 245 248 252 254 258 264 267 268 265
295 295 295 297 293 295 292 292 291 290 294 292 287 283 276 268 270 270 272 267 264 264 261 259 256 258 256 254 258 259 257 252 253 252 250 258 251 238 247 254 254 259 261 265 267
293 294 292 293 293 291 291 290 290 291 292 296 293 290 284 278 273 266 264 266 264 260 253 256 255 254 251 244 247 247 249 252 252 253 255 254 260 210 240 255 257 259 263 266 272
289 291 290 289 291 287 285 286 288 288 288 288 287 285 282 279 276 274 270 265 265 258 250 247 254 256 255 254 246 249 250 251 255 255 253 254 258 235 250 247 250 251 254 259 265
285 285 287 288 286 286 286 288 287 289 293 287 284 288 287 278 273 274 273 272 275 272 271 257 242 252 246 249 252 252 247 247 249 249 254 255 251 248 250 250 250 247 247 253 260
285 287 285 282 284 285 287 289 287 290 283 284 281 280 283 283 276 272 273 272 276 277 274 266 258 246 248 247 253 252 250 248 250 248 248 245 246 240 248 253 247 250 252 252 257
286 286 285 284 284 286 289 286 287 287 286 281 278 281 283 282 276 271 267 270 272 275 273 274 264 263 252 245 248 242 246 250 250 249 247 244 246 239 243 247 251 250 254 255 256
284 284 283 280 280 283 285 285 288 289 289 289 284 282 285 284 277 271 266 263 264 267 272 271 270 263 261 254 243 243 243 242 243 245 245 246 245 248 230 242 247 250 253 257 255
280 277 276 278 282 283 286 287 289 293 292 289 286 285 284 282 273 265 260 255 253 254 258 262 265 263 255 254 253 247 240 237 243 245 248 248 245 254 230 234 240 242 248 257 259
275 279 287 288 291 288 290 291 291 290 290 289 287 285 280 273 268 260 255 248 247 247 246 247 253 259 255 249 245 244 244 237 239 236 245 251 236 248 225 225 231 231 240 251 259
282 288 290 289 292 293 293 295 296 295 293 289 285 280 275 269 264 260 255 248 243 242 243 244 245 248 249 242 240 240 242 240 239 241 236 240 234 231 225 225 217 219 229 245 254
288 298 297 297 297 296 296 296 296 295 290 287 283 279 274 269 265 262 253 248 243 241 237 235 234 233 240 242 234 235 237 237 240 241 238 241 242 227 234 224 219 225 244 241 244
298 298 296 299 302 298 297 296 297 293 289 287 283 278 276 270 260 257 258 252 246 243 241 236 236 234 232 237 236 231 237 237 237 242 241 241 242 229 227 226 230 225 229 234 240
299 300 300 305 301 297 297 297 298 296 290 286 280 267 261 253 264 260 256 253 250 243 244 241 240 238 234 228 227 222 224 233 236 235 239 240 240 232 229 231 229 226 234 231 233
299 298 298 298 295 294 298 300 305 302 292 287 277 270 261 269 258 259 257 251 248 238 244 242 240 238 238 231 230 222 211 223 221 225 234 238 241 234 229 223 225 232 230 228 228